Weather Roundup
Issued by NWS Springfield, MO

Home | Current Version | Previous Version | Text Only | Print | Product List | Glossary On
Versions: 1 2 3 4 5 6 7 8 9 10 11 12 13 14 15 16 17 18 19 20 21 22 23 24 25 26 27 28 29 30 31 32 33 34 35 36 37 38 39 40 41 42 43 44 45 46 47 48 49 50
000
NZUS99 KSGF 190859
HRRSGF

HOURLY WEATHER
NATIONAL WEATHER SERVICE SPRINGFIELD MO
400 AM CDT SAT APR 19 2014

......SGF CWA......

CITY           SKY/WX    TMP DP  RH WIND       PRES   REMARKS
SPRINGFIELD    CLEAR     53  41  63 SE9       30.18S
JOPLIN         CLEAR     53  41  63 S9        30.17S
WEST PLAINS    CLEAR     45  40  82 NE5       30.22F
ROLLA          CLEAR     51  41  68 SE9       30.21F
OSAGE BEACH    CLEAR     54  37  54 SE3       30.22S

......SURROUNDING SGF CWA......

CITY           SKY/WX    TMP DP  RH WIND       PRES   REMARKS
CHANUTE        CLEAR     46  40  79 SE7       30.13F
PARSONS        CLEAR     42  36  79 CALM      30.14F
COFFEYVILLE    CLEAR     45  40  82 CALM      30.14S
EMPORIA        CLEAR     46  40  79 S9        30.11F HAZE
SILOAM SPRINGS CLEAR     52  39  62 SE7       30.19F
HARRISON AR    CLEAR     52  41  66 S5        30.20S
NEAR YELLVILLE CLEAR     48  37  66 CALM      30.21R

......KANSAS AND MISSOURI......

CITY           SKY/WX    TMP DP  RH WIND       PRES   REMARKS
KANSAS CTY INT FAIR      54  39  57 SE10      30.14S
DOWNTOWN KC    CLEAR     60  39  45 SE9       30.14S
COLUMBIA       CLEAR     52  39  61 SE7       30.22S
SEDALIA        CLEAR     52  41  66 SE8       30.19S
ST JOSEPH      CLEAR     51  39  63 S3        30.14S
ST LOUIS       PTCLDY    53  40  61 CALM      30.24F
SPIRIT OF STL  CLEAR     41  39  93 CALM      30.24S
KIRKSVILLE     CLEAR     45  33  63 SE7       30.21F
WICHITA        PTCLDY    47  39  74 S6        30.09F
TOPEKA         CLEAR     50  41  71 SE5       30.13F
OLATHE         CLEAR     51  40  65 SE7       30.14S

......TENNESSEE......

CITY           SKY/WX    TMP DP  RH WIND       PRES   REMARKS
MEMPHIS        PTCLDY    54  50  86 CALM      30.18S
NASHVILLE      PTCLDY    53  46  77 NW3       30.19R

......ARKANSAS.......

CITY           SKY/WX    TMP DP  RH WIND       PRES   REMARKS
FAYETTEVILLE   CLEAR     44  42  93 CALM      30.20R
FT SMITH       CLEAR     52  47  83 NE3       30.18S
LITTLE ROCK    CLEAR     53  49  86 CALM      30.18S

......OKLAHOMA.......

CITY           SKY/WX    TMP DP  RH WIND       PRES   REMARKS
TULSA          CLEAR     52  43  71 S5        30.13S
PONCA CITY     PTCLDY    58  40  51 S5        30.12S
MCALESTER      PTCLDY    56  44  64 CALM      30.16S
OKLAHOMA CITY  MOCLDY    50  42  74 SE5       30.12F

......IOWA............

CITY           SKY/WX    TMP DP  RH WIND       PRES   REMARKS
DES MOINES     PTCLDY    51  33  50 SE8       30.15F
QUAD CITIES    CLEAR     36  30  79 E9        30.31F WCI  29

......ILLINOIS........

CITY           SKY/WX    TMP DP  RH WIND       PRES   REMARKS
QUINCY         CLEAR     47  34  60 E9        30.25R
CHICAGO        PTCLDY    38  26  62 E7        30.35F WCI  33



USA.gov is the U.S. government's official web portal to all federal, state and local government web resources and services.